Volver al catálogo

SITRO-AIS-44

ActivoComunicacionesPO
NORAD 61748·PAYLOAD·🇷🇺 Russia
Este nombre de satélite aún no ha sido confirmado por fuentes oficiales.

Lanzado Nov 4, 2024 desde Vostochny Cosmodrome

Loading…

Próximos Pases (próximas 24 horas)

TLE

ActualizadoSource: Space-Track

Época: Sep 14, 2026, 21:47 UTC

1 61748U 24199P   26257.90781851  .00351354  49308-4  10199-2 0  9993
2 61748  97.2619 141.7497 0002867 145.8543 214.2917 15.92917707151931

Sigue SITRO-AIS-44 en tiempo real con AllMySat

Download on the App Store